Time,TemperatureF,DewpointF,PressureIn,WindDirection,WindDirectionDegrees,WindSpeedMPH,WindSpeedGustMPH,Humidity,HourlyPrecipIn,Conditions,Clouds,dailyrainin,SoftwareType,DateUTC
2013-01-09 00:02:00,42.3,40.6,30.13,NE,45,0.0,0.0,94,0.00,,,0.00,meteohub,2013-01-09 08:02:00,
2013-01-09 00:07:00,42.3,40.6,30.13,NE,45,0.0,0.0,94,0.00,,,0.00,meteohub,2013-01-09 08:07:00,
2013-01-09 00:12:00,42.3,40.6,30.13,NE,45,0.0,0.0,94,0.00,,,0.00,meteohub,2013-01-09 08:12:00,
2013-01-09 00:17:00,42.3,41.0,30.13,NE,45,0.0,0.0,95,0.00,,,0.00,meteohub,2013-01-09 08:17:00,
2013-01-09 00:22:00,42.3,40.6,30.12,NE,45,0.0,0.0,94,0.00,,,0.00,meteohub,2013-01-09 08:22:00,
2013-01-09 00:27:00,42.1,40.8,30.12,NE,45,0.0,0.0,95,0.00,,,0.00,meteohub,2013-01-09 08:27:00,
2013-01-09 00:32:00,42.3,41.0,30.12,NE,45,0.0,0.0,95,0.00,,,0.00,meteohub,2013-01-09 08:32:00,
2013-01-09 00:37:00,42.3,41.0,30.12,NE,45,0.0,0.0,95,0.00,,,0.00,meteohub,2013-01-09 08:37:00,
2013-01-09 00:42:00,42.3,41.0,30.13,NE,45,0.0,0.0,95,0.00,,,0.00,meteohub,2013-01-09 08:42:00,
2013-01-09 00:47:00,42.3,41.0,30.12,NE,45,0.0,0.0,95,0.00,,,0.00,meteohub,2013-01-09 08:47:00,
2013-01-09 00:52:00,42.3,41.0,30.12,NE,45,0.0,0.0,95,0.00,,,0.00,meteohub,2013-01-09 08:52:00,
2013-01-09 00:57:00,42.3,41.0,30.12,NE,45,0.0,0.0,95,0.00,,,0.00,meteohub,2013-01-09 08:57:00,
2013-01-09 01:02:00,42.4,41.2,30.12,NE,45,0.0,2.0,95,0.00,,,0.00,meteohub,2013-01-09 09:02:00,
2013-01-09 01:07:00,42.6,41.4,30.12,NE,45,0.0,2.0,95,0.00,,,0.00,meteohub,2013-01-09 09:07:00,
2013-01-09 01:12:00,42.6,41.4,30.12,NE,45,0.0,2.0,95,0.00,,,0.00,meteohub,2013-01-09 09:12:00,
2013-01-09 01:17:00,42.6,41.4,30.12,NE,45,0.0,1.0,95,0.00,,,0.00,meteohub,2013-01-09 09:17:00,
2013-01-09 01:22:00,42.6,41.4,30.12,NE,45,0.0,0.0,95,0.00,,,0.00,meteohub,2013-01-09 09:22:00,
2013-01-09 01:27:00,42.4,41.2,30.12,NE,45,0.0,0.0,95,0.00,,,0.00,meteohub,2013-01-09 09:27:00,
2013-01-09 01:32:00,42.4,41.2,30.12,NE,45,0.0,0.0,95,0.00,,,0.00,meteohub,2013-01-09 09:32:00,
2013-01-09 01:37:00,42.3,41.0,30.12,NE,45,0.0,0.0,95,0.00,,,0.00,meteohub,2013-01-09 09:37:00,
2013-01-09 01:42:00,42.3,41.0,30.12,NE,45,0.0,0.0,95,0.00,,,0.00,meteohub,2013-01-09 09:42:00,
2013-01-09 01:47:00,42.1,40.8,30.12,NE,45,0.0,0.0,95,0.00,,,0.00,meteohub,2013-01-09 09:47:00,
2013-01-09 01:52:00,42.1,40.8,30.12,NE,45,0.0,0.0,95,0.00,,,0.00,meteohub,2013-01-09 09:52:00,
2013-01-09 01:57:00,41.9,40.6,30.13,NE,45,0.0,0.0,95,0.00,,,0.00,meteohub,2013-01-09 09:57:00,
2013-01-09 02:02:00,41.7,40.5,30.13,NE,45,0.0,0.0,95,0.00,,,0.00,meteohub,2013-01-09 10:02:00,
2013-01-09 02:07:00,41.7,40.5,30.13,SW,225,2.0,0.0,95,0.00,,,0.00,meteohub,2013-01-09 10:07:00,
2013-01-09 02:12:00,41.7,40.5,30.13,SW,225,0.0,2.0,95,0.00,,,0.00,meteohub,2013-01-09 10:12:00,
2013-01-09 02:17:00,41.5,40.3,30.13,SW,225,0.0,2.0,95,0.00,,,0.00,meteohub,2013-01-09 10:17:00,
2013-01-09 02:22:00,41.5,40.3,30.12,SW,225,0.0,2.0,95,0.00,,,0.00,meteohub,2013-01-09 10:22:00,
2013-01-09 02:27:00,41.2,39.9,30.12,East,90,0.0,0.0,95,0.00,,,0.00,meteohub,2013-01-09 10:27:00,
2013-01-09 02:32:00,41.2,39.9,30.11,East,90,0.0,0.0,95,0.00,,,0.00,meteohub,2013-01-09 10:32:00,
2013-01-09 02:37:00,41.0,39.7,30.11,East,90,0.0,0.0,95,0.00,,,0.00,meteohub,2013-01-09 10:37:00,
2013-01-09 02:42:00,41.0,39.7,30.12,SE,135,0.0,0.0,95,0.00,,,0.00,meteohub,2013-01-09 10:42:00,
2013-01-09 02:47:00,41.0,39.7,30.11,SE,135,0.0,0.0,95,0.00,,,0.00,meteohub,2013-01-09 10:47:00,
2013-01-09 02:52:00,40.8,39.6,30.12,SE,135,0.0,0.0,95,0.00,,,0.00,meteohub,2013-01-09 10:52:00,
2013-01-09 02:57:00,40.6,39.4,30.12,South,180,0.0,0.0,95,0.00,,,0.00,meteohub,2013-01-09 10:57:00,
2013-01-09 03:02:00,40.6,39.4,30.12,South,180,0.0,0.0,95,0.00,,,0.00,meteohub,2013-01-09 11:02:00,
2013-01-09 03:07:00,40.6,39.4,30.11,South,180,0.0,0.0,95,0.00,,,0.00,meteohub,2013-01-09 11:07:00,
2013-01-09 03:12:00,40.3,39.0,30.11,SE,135,0.0,0.0,95,0.00,,,0.00,meteohub,2013-01-09 11:12:00,
2013-01-09 03:17:00,40.3,39.0,30.10,East,90,0.0,0.0,95,0.00,,,0.00,meteohub,2013-01-09 11:17:00,
2013-01-09 03:22:00,40.3,39.2,30.11,North,0,2.0,2.0,96,0.00,,,0.00,meteohub,2013-01-09 11:22:00,
2013-01-09 03:27:00,40.3,39.2,30.11,North,0,2.0,2.0,96,0.00,,,0.00,meteohub,2013-01-09 11:27:00,
2013-01-09 03:32:00,40.3,39.2,30.09,North,0,0.0,2.0,96,0.00,,,0.00,meteohub,2013-01-09 11:32:00,
2013-01-09 03:37:00,40.3,39.2,30.09,North,0,0.0,2.0,96,0.00,,,0.00,meteohub,2013-01-09 11:37:00,
2013-01-09 03:42:00,40.1,39.0,30.10,North,0,0.0,2.0,96,0.00,,,0.00,meteohub,2013-01-09 11:42:00,
2013-01-09 03:47:00,40.1,39.0,30.10,North,0,0.0,1.0,96,0.00,,,0.00,meteohub,2013-01-09 11:47:00,
2013-01-09 03:52:00,39.9,38.8,30.09,North,0,0.0,1.0,96,0.00,,,0.00,meteohub,2013-01-09 11:52:00,
2013-01-09 03:57:00,39.9,38.8,30.09,North,0,1.0,1.0,96,0.00,,,0.00,meteohub,2013-01-09 11:57:00,
2013-01-09 04:02:00,39.9,38.8,30.09,NE,45,2.0,2.0,96,0.00,,,0.00,meteohub,2013-01-09 12:02:00,
2013-01-09 04:07:00,39.9,38.8,30.09,NE,45,2.0,2.0,96,0.00,,,0.00,meteohub,2013-01-09 12:07:00,
2013-01-09 04:12:00,39.7,38.7,30.09,North,0,0.0,2.0,96,0.00,,,0.00,meteohub,2013-01-09 12:12:00,
2013-01-09 04:17:00,39.6,38.5,30.08,North,0,2.0,2.0,96,0.00,,,0.00,meteohub,2013-01-09 12:17:00,
2013-01-09 04:22:00,39.6,38.5,30.09,North,0,1.0,2.0,96,0.00,,,0.00,meteohub,2013-01-09 12:22:00,
2013-01-09 04:27:00,39.6,38.5,30.09,North,0,0.0,2.0,96,0.00,,,0.00,meteohub,2013-01-09 12:27:00,
2013-01-09 04:32:00,39.4,38.3,30.08,North,0,0.0,2.0,96,0.00,,,0.00,meteohub,2013-01-09 12:32:00,
2013-01-09 04:37:00,39.4,38.3,30.08,North,0,0.0,1.0,96,0.00,,,0.00,meteohub,2013-01-09 12:37:00,
2013-01-09 04:42:00,39.2,38.1,30.08,North,0,0.0,0.0,96,0.00,,,0.00,meteohub,2013-01-09 12:42:00,
2013-01-09 04:47:00,39.0,37.9,30.08,North,0,0.0,0.0,96,0.00,,,0.00,meteohub,2013-01-09 12:47:00,
2013-01-09 04:52:00,38.8,37.8,30.07,North,0,0.0,0.0,96,0.00,,,0.00,meteohub,2013-01-09 12:52:00,
2013-01-09 04:57:00,38.8,37.8,30.07,North,0,1.0,0.0,96,0.00,,,0.00,meteohub,2013-01-09 12:57:00,
2013-01-09 05:02:00,38.8,37.8,30.07,North,0,0.0,1.0,96,0.00,,,0.00,meteohub,2013-01-09 13:02:00,
2013-01-09 05:07:00,38.8,37.8,30.07,North,0,0.0,1.0,96,0.00,,,0.00,meteohub,2013-01-09 13:07:00,
2013-01-09 05:12:00,38.7,37.6,30.07,North,0,0.0,1.0,96,0.00,,,0.00,meteohub,2013-01-09 13:12:00,
2013-01-09 05:17:00,38.7,37.6,30.06,North,0,0.0,0.0,96,0.00,,,0.00,meteohub,2013-01-09 13:17:00,
2013-01-09 05:22:00,38.7,37.6,30.07,North,0,2.0,2.0,96,0.00,,,0.00,meteohub,2013-01-09 13:22:00,
2013-01-09 05:27:00,38.7,37.6,30.06,North,0,0.0,2.0,96,0.00,,,0.00,meteohub,2013-01-09 13:27:00,
2013-01-09 05:32:00,38.7,37.9,30.07,North,0,0.0,2.0,97,0.00,,,0.00,meteohub,2013-01-09 13:32:00,
2013-01-09 05:37:00,38.7,37.9,30.07,North,0,1.0,2.0,97,0.00,,,0.00,meteohub,2013-01-09 13:37:00,
2013-01-09 05:42:00,38.7,37.9,30.07,North,0,1.0,2.0,97,0.00,,,0.00,meteohub,2013-01-09 13:42:00,
2013-01-09 05:47:00,38.7,37.9,30.06,North,0,0.0,2.0,97,0.00,,,0.00,meteohub,2013-01-09 13:47:00,
2013-01-09 05:52:00,38.7,37.9,30.06,NE,45,2.0,2.0,97,0.00,,,0.00,meteohub,2013-01-09 13:52:00,
2013-01-09 05:57:00,38.7,37.9,30.06,NE,45,2.0,2.0,97,0.00,,,0.00,meteohub,2013-01-09 13:57:00,
2013-01-09 06:02:00,38.7,37.9,30.07,North,0,2.0,2.0,97,0.00,,,0.00,meteohub,2013-01-09 14:02:00,
2013-01-09 06:07:00,38.7,37.9,30.06,North,0,2.0,2.0,97,0.00,,,0.00,meteohub,2013-01-09 14:07:00,
2013-01-09 06:12:00,38.7,37.9,30.06,NE,45,0.0,2.0,97,0.00,,,0.00,meteohub,2013-01-09 14:12:00,
2013-01-09 06:17:00,38.7,37.9,30.06,NE,45,2.0,2.0,97,0.00,,,0.00,meteohub,2013-01-09 14:17:00,
2013-01-09 06:22:00,38.7,37.9,30.06,NE,45,1.0,2.0,97,0.00,,,0.00,meteohub,2013-01-09 14:22:00,
2013-01-09 06:27:00,38.5,37.8,30.06,NE,45,1.0,2.0,97,0.00,,,0.00,meteohub,2013-01-09 14:27:00,
2013-01-09 06:32:00,38.5,37.8,30.06,NE,45,1.0,2.0,97,0.00,,,0.00,meteohub,2013-01-09 14:32:00,
2013-01-09 06:37:00,38.5,37.8,30.07,NE,45,2.0,2.0,97,0.00,,,0.00,meteohub,2013-01-09 14:37:00,
2013-01-09 06:42:00,38.3,37.6,30.07,North,0,1.0,2.0,97,0.00,,,0.00,meteohub,2013-01-09 14:42:00,
2013-01-09 06:47:00,38.5,37.8,30.07,NE,45,2.0,2.0,97,0.00,,,0.00,meteohub,2013-01-09 14:47:00,
2013-01-09 06:52:00,38.3,37.6,30.06,North,0,0.0,2.0,97,0.00,,,0.00,meteohub,2013-01-09 14:52:00,
2013-01-09 06:57:00,38.3,37.6,30.06,NE,45,0.0,2.0,97,0.00,,,0.00,meteohub,2013-01-09 14:57:00,
2013-01-09 07:02:00,38.3,37.6,30.06,NE,45,1.0,2.0,97,0.00,,,0.00,meteohub,2013-01-09 15:02:00,
2013-01-09 07:07:00,38.3,37.6,30.06,North,0,0.0,1.0,97,0.00,,,0.00,meteohub,2013-01-09 15:07:00,
2013-01-09 07:12:00,38.3,37.6,30.06,North,0,0.0,2.0,97,0.00,,,0.00,meteohub,2013-01-09 15:12:00,
2013-01-09 07:17:00,38.3,37.6,30.06,North,0,0.0,2.0,97,0.00,,,0.00,meteohub,2013-01-09 15:17:00,
2013-01-09 07:22:00,38.3,37.6,30.06,NE,45,1.0,2.0,97,0.00,,,0.00,meteohub,2013-01-09 15:22:00,
2013-01-09 07:28:00,38.3,37.6,30.06,NE,45,0.0,1.0,97,0.00,,,0.00,meteohub,2013-01-09 15:28:00,
2013-01-09 07:33:00,38.3,37.6,30.06,North,0,1.0,1.0,97,0.00,,,0.00,meteohub,2013-01-09 15:33:00,
2013-01-09 07:38:00,38.3,37.6,30.05,North,0,1.0,1.0,97,0.00,,,0.00,meteohub,2013-01-09 15:38:00,
2013-01-09 07:43:00,38.3,37.6,30.06,North,0,0.0,2.0,97,0.00,,,0.00,meteohub,2013-01-09 15:43:00,
2013-01-09 07:48:00,38.3,37.6,30.06,NE,45,0.0,2.0,97,0.00,,,0.00,meteohub,2013-01-09 15:48:00,
2013-01-09 07:53:00,38.3,37.6,30.06,NE,45,0.0,2.0,97,0.00,,,0.00,meteohub,2013-01-09 15:53:00,
2013-01-09 07:58:00,38.3,37.6,30.06,NE,45,0.0,1.0,97,0.00,,,0.00,meteohub,2013-01-09 15:58:00,
2013-01-09 08:03:00,38.5,37.8,30.06,NE,45,0.0,0.0,97,0.00,,,0.00,meteohub,2013-01-09 16:03:00,
2013-01-09 08:08:00,38.5,37.8,30.06,NE,45,0.0,0.0,97,0.00,,,0.00,meteohub,2013-01-09 16:08:00,
2013-01-09 08:13:00,38.7,38.1,30.06,NE,45,0.0,0.0,98,0.00,,,0.00,meteohub,2013-01-09 16:13:00,
2013-01-09 08:18:00,38.8,38.3,30.06,NE,45,0.0,0.0,98,0.00,,,0.00,meteohub,2013-01-09 16:18:00,
2013-01-09 08:23:00,38.8,38.3,30.06,NE,45,0.0,0.0,98,0.00,,,0.00,meteohub,2013-01-09 16:23:00,
2013-01-09 08:28:00,39.2,38.7,30.06,NE,45,0.0,0.0,98,0.00,,,0.00,meteohub,2013-01-09 16:28:00,
2013-01-09 08:34:00,39.4,38.8,30.06,SE,135,0.0,0.0,98,0.00,,,0.00,meteohub,2013-01-09 16:34:00,
2013-01-09 08:39:00,39.6,39.0,30.07,North,0,0.0,0.0,98,0.00,,,0.00,meteohub,2013-01-09 16:39:00,
2013-01-09 08:44:00,39.9,39.4,30.06,NE,45,0.0,0.0,98,0.00,,,0.00,meteohub,2013-01-09 16:44:00,
2013-01-09 08:49:00,40.1,39.6,30.07,NE,45,0.0,0.0,98,0.00,,,0.00,meteohub,2013-01-09 16:49:00,
2013-01-09 08:54:00,40.5,39.9,30.07,NE,45,0.0,0.0,98,0.00,,,0.00,meteohub,2013-01-09 16:54:00,
2013-01-09 08:59:00,40.6,40.1,30.07,North,0,0.0,0.0,98,0.00,,,0.00,meteohub,2013-01-09 16:59:00,
2013-01-09 09:04:00,40.8,40.3,30.07,East,90,0.0,0.0,98,0.00,,,0.00,meteohub,2013-01-09 17:04:00,
2013-01-09 09:09:00,41.0,40.5,30.06,South,180,0.0,0.0,98,0.00,,,0.00,meteohub,2013-01-09 17:09:00,
2013-01-09 09:14:00,41.4,40.8,30.07,SW,225,0.0,0.0,98,0.00,,,0.00,meteohub,2013-01-09 17:14:00,
2013-01-09 09:19:00,41.4,40.8,30.06,SE,135,0.0,0.0,98,0.00,,,0.00,meteohub,2013-01-09 17:19:00,
2013-01-09 09:24:00,41.5,41.0,30.06,South,180,0.0,0.0,98,0.00,,,0.00,meteohub,2013-01-09 17:24:00,
2013-01-09 09:29:00,41.5,41.0,30.06,South,180,0.0,0.0,98,0.00,,,0.00,meteohub,2013-01-09 17:29:00,
2013-01-09 09:34:00,41.7,41.2,30.05,East,90,0.0,0.0,98,0.00,,,0.00,meteohub,2013-01-09 17:34:00,
2013-01-09 09:39:00,42.1,41.5,30.05,West,270,0.0,0.0,98,0.00,,,0.00,meteohub,2013-01-09 17:39:00,
2013-01-09 09:45:00,42.3,41.7,30.06,SW,225,0.0,0.0,98,0.00,,,0.00,meteohub,2013-01-09 17:45:00,
2013-01-09 09:50:00,42.4,41.9,30.06,SW,225,0.0,0.0,98,0.00,,,0.00,meteohub,2013-01-09 17:50:00,
2013-01-09 09:55:00,42.8,42.3,30.05,East,90,0.0,0.0,98,0.00,,,0.00,meteohub,2013-01-09 17:55:00,
2013-01-09 10:00:00,43.0,42.4,30.05,SSE,158,0.0,0.0,98,0.00,,,0.00,meteohub,2013-01-09 18:00:00,
2013-01-09 10:05:00,43.2,42.6,30.05,SSE,158,0.0,0.0,98,0.00,,,0.00,meteohub,2013-01-09 18:05:00,
2013-01-09 10:10:00,43.3,43.2,30.05,SW,225,2.0,0.0,99,0.00,,,0.00,meteohub,2013-01-09 18:10:00,
2013-01-09 10:15:00,43.5,43.0,30.05,SW,225,0.0,2.0,98,0.00,,,0.00,meteohub,2013-01-09 18:15:00,
2013-01-09 10:20:00,43.7,43.2,30.04,SW,225,0.0,2.0,98,0.00,,,0.00,meteohub,2013-01-09 18:20:00,
2013-01-09 10:25:00,43.9,43.3,30.04,SW,225,0.0,2.0,98,0.00,,,0.00,meteohub,2013-01-09 18:25:00,
2013-01-09 10:30:00,44.1,43.9,30.03,SW,225,0.0,0.0,99,0.00,,,0.00,meteohub,2013-01-09 18:30:00,
2013-01-09 10:35:00,44.2,43.7,30.03,SW,225,2.0,0.0,98,0.00,,,0.00,meteohub,2013-01-09 18:35:00,
2013-01-09 10:40:00,44.4,44.2,30.04,SW,225,1.0,2.0,99,0.00,,,0.00,meteohub,2013-01-09 18:40:00,
2013-01-09 10:41:00,44.4,44.2,30.03,SW,225,0.0,2.0,99,0.00,,,0.00,meteohub,2013-01-09 18:41:00,
2013-01-09 10:42:00,44.4,43.9,30.03,SW,225,0.0,2.0,98,0.00,,,0.00,meteohub,2013-01-09 18:42:00,
2013-01-09 10:43:00,44.4,43.9,30.03,SW,225,0.0,2.0,98,0.00,,,0.00,meteohub,2013-01-09 18:43:00,
2013-01-09 10:44:00,44.4,43.9,30.03,SW,225,1.0,2.0,98,0.00,,,0.00,meteohub,2013-01-09 18:44:00,
2013-01-09 10:45:00,44.4,44.2,30.02,SW,225,0.0,2.0,99,0.00,,,0.00,meteohub,2013-01-09 18:45:00,
2013-01-09 10:47:00,44.6,44.4,30.02,SW,225,1.0,2.0,99,0.00,,,0.00,meteohub,2013-01-09 18:47:00,
2013-01-09 10:48:00,44.6,44.4,30.02,SW,225,1.0,2.0,99,0.00,,,0.00,meteohub,2013-01-09 18:48:00,
2013-01-09 10:49:00,44.6,44.1,30.03,SW,225,0.0,2.0,98,0.00,,,0.00,meteohub,2013-01-09 18:49:00,
2013-01-09 10:50:00,44.6,44.4,30.03,SW,225,1.0,2.0,99,0.00,,,0.00,meteohub,2013-01-09 18:50:00,
2013-01-09 10:55:00,44.8,44.6,30.02,SW,225,0.0,1.0,99,0.00,,,0.00,meteohub,2013-01-09 18:55:00,
2013-01-09 11:00:00,45.0,44.8,30.03,SW,225,1.0,1.0,99,0.00,,,0.00,meteohub,2013-01-09 19:00:00,
2013-01-09 11:05:00,45.0,44.4,30.02,SW,225,0.0,2.0,98,0.00,,,0.00,meteohub,2013-01-09 19:05:00,
2013-01-09 11:10:00,45.1,45.0,30.02,SW,225,1.0,2.0,99,0.00,,,0.00,meteohub,2013-01-09 19:10:00,
2013-01-09 11:16:00,45.3,45.1,30.01,SW,225,1.0,1.0,99,0.00,,,0.00,meteohub,2013-01-09 19:16:00,
2013-01-09 11:21:00,45.9,45.3,30.00,South,180,0.0,1.0,98,0.00,,,0.00,meteohub,2013-01-09 19:21:00,
2013-01-09 11:26:00,46.0,45.9,30.00,East,90,2.0,2.0,99,0.00,,,0.00,meteohub,2013-01-09 19:26:00,
2013-01-09 11:31:00,46.4,46.2,29.99,North,0,0.0,2.0,99,0.00,,,0.00,meteohub,2013-01-09 19:31:00,
2013-01-09 11:36:00,46.6,46.4,30.00,NE,45,0.0,2.0,99,0.00,,,0.00,meteohub,2013-01-09 19:36:00,
2013-01-09 11:41:00,46.9,46.8,29.99,SE,135,0.0,2.0,99,0.00,,,0.00,meteohub,2013-01-09 19:41:00,
2013-01-09 11:46:00,47.3,47.1,29.99,NW,315,0.0,2.0,99,0.00,,,0.00,meteohub,2013-01-09 19:46:00,
2013-01-09 11:51:00,47.5,46.9,29.99,South,180,1.0,2.0,98,0.00,,,0.00,meteohub,2013-01-09 19:51:00,
2013-01-09 11:57:00,47.7,47.1,29.97,East,90,0.0,2.0,98,0.00,,,0.00,meteohub,2013-01-09 19:57:00,
2013-01-09 12:02:00,48.0,47.5,29.97,South,180,0.0,2.0,98,0.00,,,0.00,meteohub,2013-01-09 20:02:00,
2013-01-09 12:07:00,48.2,47.7,29.97,South,180,0.0,2.0,98,0.00,,,0.00,meteohub,2013-01-09 20:07:00,
2013-01-09 12:12:00,48.4,47.8,29.97,West,270,1.0,2.0,98,0.00,,,0.00,meteohub,2013-01-09 20:12:00,
2013-01-09 12:17:00,48.4,47.5,29.96,SW,225,0.0,2.0,97,0.00,,,0.00,meteohub,2013-01-09 20:17:00,
2013-01-09 12:22:00,48.4,47.5,29.96,South,180,2.0,2.0,97,0.00,,,0.00,meteohub,2013-01-09 20:22:00,
2013-01-09 12:27:00,48.6,47.7,29.96,SW,225,0.0,2.0,97,0.00,,,0.00,meteohub,2013-01-09 20:27:00,
2013-01-09 12:32:00,48.6,47.7,29.96,SW,225,0.0,2.0,97,0.00,,,0.00,meteohub,2013-01-09 20:32:00,
2013-01-09 12:37:00,48.7,47.8,29.95,SW,225,1.0,2.0,97,0.00,,,0.00,meteohub,2013-01-09 20:37:00,
2013-01-09 12:42:00,48.9,48.0,29.95,NE,45,2.0,2.0,97,0.00,,,0.00,meteohub,2013-01-09 20:42:00,
2013-01-09 12:47:00,49.3,48.4,29.95,East,90,2.0,2.0,97,0.00,,,0.00,meteohub,2013-01-09 20:47:00,
2013-01-09 12:52:00,49.5,48.4,29.95,South,180,0.0,2.0,96,0.00,,,0.00,meteohub,2013-01-09 20:52:00,
2013-01-09 12:57:00,49.6,48.6,29.94,NE,45,0.0,2.0,96,0.00,,,0.00,meteohub,2013-01-09 20:57:00,
2013-01-09 13:02:00,50.0,48.9,29.95,North,0,1.0,2.0,96,0.00,,,0.00,meteohub,2013-01-09 21:02:00,
2013-01-09 13:07:00,50.4,49.3,29.94,NE,45,1.0,2.0,96,0.00,,,0.00,meteohub,2013-01-09 21:07:00,
2013-01-09 13:12:00,50.5,49.5,29.94,NE,45,1.0,2.0,96,0.00,,,0.00,meteohub,2013-01-09 21:12:00,
2013-01-09 13:17:00,50.9,49.8,29.93,South,180,2.0,2.0,96,0.00,,,0.00,meteohub,2013-01-09 21:17:00,
2013-01-09 13:22:00,51.3,49.8,29.93,North,0,2.0,2.0,95,0.00,,,0.00,meteohub,2013-01-09 21:22:00,
2013-01-09 13:27:00,51.6,50.2,29.93,East,90,2.0,2.0,95,0.00,,,0.00,meteohub,2013-01-09 21:27:00,
2013-01-09 13:32:00,51.8,50.2,29.93,NE,45,3.0,3.0,94,0.00,,,0.00,meteohub,2013-01-09 21:32:00,
2013-01-09 13:37:00,52.2,50.5,29.93,East,90,1.0,3.0,94,0.00,,,0.00,meteohub,2013-01-09 21:37:00,
2013-01-09 13:42:00,52.5,50.9,29.93,SW,225,2.0,3.0,94,0.00,,,0.00,meteohub,2013-01-09 21:42:00,
2013-01-09 13:47:00,52.9,51.3,29.92,SE,135,2.0,3.0,94,0.00,,,0.00,meteohub,2013-01-09 21:47:00,
2013-01-09 13:52:00,53.2,51.3,29.92,SE,135,2.0,2.0,93,0.00,,,0.00,meteohub,2013-01-09 21:52:00,
2013-01-09 13:57:00,53.4,51.4,29.91,East,90,2.0,2.0,93,0.00,,,0.00,meteohub,2013-01-09 21:57:00,
2013-01-09 14:02:00,53.6,51.3,29.92,South,180,1.0,2.0,92,0.00,,,0.00,meteohub,2013-01-09 22:02:00,
2013-01-09 14:07:00,53.8,51.4,29.92,SW,225,2.0,2.0,92,0.00,,,0.00,meteohub,2013-01-09 22:07:00,
2013-01-09 14:12:00,54.0,51.6,29.92,SW,225,1.0,2.0,92,0.00,,,0.00,meteohub,2013-01-09 22:12:00,
2013-01-09 14:17:00,53.8,51.3,29.92,West,270,2.0,2.0,91,0.00,,,0.00,meteohub,2013-01-09 22:17:00,
2013-01-09 14:22:00,53.6,50.7,29.91,South,180,2.0,2.0,90,0.00,,,0.00,meteohub,2013-01-09 22:22:00,
2013-01-09 14:27:00,53.6,50.7,29.91,SW,225,2.0,2.0,90,0.00,,,0.00,meteohub,2013-01-09 22:27:00,
2013-01-09 14:32:00,53.4,50.5,29.91,North,0,1.0,2.0,90,0.00,,,0.00,meteohub,2013-01-09 22:32:00,
2013-01-09 14:37:00,53.2,50.4,29.91,SW,225,4.0,4.0,90,0.00,,,0.00,meteohub,2013-01-09 22:37:00,
2013-01-09 14:42:00,53.1,50.2,29.91,South,180,2.0,4.0,90,0.00,,,0.00,meteohub,2013-01-09 22:42:00,
2013-01-09 14:47:00,53.1,49.8,29.91,South,180,2.0,4.0,89,0.00,,,0.00,meteohub,2013-01-09 22:47:00,
2013-01-09 14:52:00,52.9,49.6,29.91,South,180,2.0,4.0,89,0.00,,,0.00,meteohub,2013-01-09 22:52:00,
2013-01-09 14:57:00,52.7,49.5,29.90,SE,135,2.0,2.0,89,0.00,,,0.00,meteohub,2013-01-09 22:57:00,
2013-01-09 15:02:00,52.5,49.5,29.91,SW,225,2.0,2.0,89,0.00,,,0.00,meteohub,2013-01-09 23:02:00,
2013-01-09 15:07:00,52.5,49.5,29.91,South,180,2.0,2.0,89,0.00,,,0.00,meteohub,2013-01-09 23:07:00,
2013-01-09 15:12:00,52.3,49.3,29.91,East,90,1.0,2.0,89,0.00,,,0.00,meteohub,2013-01-09 23:12:00,
2013-01-09 15:17:00,52.3,49.3,29.91,South,180,2.0,2.0,89,0.00,,,0.00,meteohub,2013-01-09 23:17:00,
2013-01-09 15:22:00,52.3,49.5,29.91,SW,225,1.0,2.0,90,0.00,,,0.00,meteohub,2013-01-09 23:22:00,
2013-01-09 15:27:00,52.3,49.3,29.90,West,270,2.0,2.0,89,0.00,,,0.00,meteohub,2013-01-09 23:27:00,
2013-01-09 15:32:00,52.3,49.3,29.91,SE,135,2.0,3.0,89,0.00,,,0.00,meteohub,2013-01-09 23:32:00,
2013-01-09 15:37:00,52.5,49.5,29.90,SW,225,2.0,4.0,89,0.00,,,0.00,meteohub,2013-01-09 23:37:00,
2013-01-09 15:42:00,52.5,49.5,29.90,South,180,2.0,4.0,89,0.00,,,0.00,meteohub,2013-01-09 23:42:00,
2013-01-09 15:47:00,52.5,49.5,29.90,East,90,2.0,4.0,89,0.00,,,0.00,meteohub,2013-01-09 23:47:00,
2013-01-09 15:52:00,52.5,49.5,29.90,SW,225,2.0,4.0,89,0.00,,,0.00,meteohub,2013-01-09 23:52:00,
2013-01-09 15:57:00,52.5,49.6,29.90,SW,225,3.0,4.0,90,0.00,,,0.00,meteohub,2013-01-09 23:57:00,
2013-01-09 16:02:00,52.5,49.6,29.91,SW,225,3.0,4.0,90,0.00,,,0.00,meteohub,2013-01-10 00:02:00,
2013-01-09 16:07:00,52.5,49.6,29.91,SW,225,3.0,4.0,90,0.00,,,0.00,meteohub,2013-01-10 00:07:00,
2013-01-09 16:12:00,52.7,49.8,29.91,SW,225,2.0,4.0,90,0.00,,,0.00,meteohub,2013-01-10 00:12:00,
2013-01-09 16:17:00,52.7,49.8,29.90,SW,225,2.0,4.0,90,0.00,,,0.00,meteohub,2013-01-10 00:17:00,
2013-01-09 16:22:00,52.9,50.0,29.90,South,180,2.0,4.0,90,0.00,,,0.00,meteohub,2013-01-10 00:22:00,
2013-01-09 16:27:00,53.2,50.4,29.89,South,180,2.0,2.0,90,0.00,,,0.00,meteohub,2013-01-10 00:27:00,
2013-01-09 16:32:00,53.4,50.5,29.90,East,90,2.0,2.0,90,0.00,,,0.00,meteohub,2013-01-10 00:32:00,
2013-01-09 16:37:00,53.4,50.5,29.89,SW,225,2.0,3.0,90,0.00,,,0.00,meteohub,2013-01-10 00:37:00,
2013-01-09 16:42:00,53.4,50.5,29.90,SW,225,2.0,3.0,90,0.00,,,0.00,meteohub,2013-01-10 00:42:00,
2013-01-09 16:47:00,53.2,50.0,29.90,SW,225,4.0,4.0,89,0.00,,,0.00,meteohub,2013-01-10 00:47:00,
2013-01-09 16:52:00,53.1,49.8,29.90,SW,225,3.0,4.0,89,0.00,,,0.00,meteohub,2013-01-10 00:52:00,
2013-01-09 16:57:00,52.9,50.0,29.90,SW,225,2.0,4.0,90,0.00,,,0.00,meteohub,2013-01-10 00:57:00,
2013-01-09 17:02:00,52.7,49.5,29.90,East,90,3.0,5.0,89,0.00,,,0.00,meteohub,2013-01-10 01:02:00,
2013-01-09 17:07:00,52.7,49.3,29.90,SW,225,2.0,5.0,88,0.00,,,0.00,meteohub,2013-01-10 01:07:00,
2013-01-09 17:12:00,52.7,49.3,29.90,East,90,2.0,5.0,88,0.00,,,0.00,meteohub,2013-01-10 01:12:00,
2013-01-09 17:17:00,52.7,48.9,29.89,SW,225,4.0,5.0,87,0.00,,,0.00,meteohub,2013-01-10 01:17:00,
2013-01-09 17:22:00,52.5,48.2,29.89,NE,45,2.0,5.0,85,0.00,,,0.00,meteohub,2013-01-10 01:22:00,
2013-01-09 17:27:00,52.3,47.3,29.89,West,270,3.0,4.0,83,0.00,,,0.00,meteohub,2013-01-10 01:27:00,
2013-01-09 17:32:00,52.0,46.9,29.89,SW,225,4.0,4.0,83,0.00,,,0.00,meteohub,2013-01-10 01:32:00,
2013-01-09 17:37:00,52.0,46.6,29.90,East,90,4.0,4.0,82,0.00,,,0.00,meteohub,2013-01-10 01:37:00,
2013-01-09 17:42:00,51.6,46.0,29.89,North,0,4.0,4.0,81,0.00,,,0.00,meteohub,2013-01-10 01:42:00,
2013-01-09 17:47:00,51.4,45.9,29.89,North,0,2.0,11.0,81,0.00,,,0.00,meteohub,2013-01-10 01:47:00,
2013-01-09 17:52:00,51.1,45.5,29.89,NE,45,6.0,11.0,81,0.00,,,0.00,meteohub,2013-01-10 01:52:00,
2013-01-09 17:57:00,51.1,45.5,29.89,NW,315,3.0,11.0,81,0.00,,,0.00,meteohub,2013-01-10 01:57:00,
2013-01-09 18:02:00,51.1,45.5,29.90,North,0,3.0,8.0,81,0.00,,,0.00,meteohub,2013-01-10 02:02:00,
2013-01-09 18:07:00,51.1,45.5,29.90,North,0,3.0,7.0,81,0.00,,,0.00,meteohub,2013-01-10 02:07:00,
2013-01-09 18:12:00,50.7,45.1,29.90,East,90,2.0,7.0,81,0.00,,,0.00,meteohub,2013-01-10 02:12:00,
2013-01-09 18:18:00,50.7,45.5,29.90,North,0,2.0,7.0,82,0.00,,,0.00,meteohub,2013-01-10 02:18:00,
2013-01-09 18:23:00,50.5,44.6,29.90,North,0,4.0,4.0,80,0.00,,,0.00,meteohub,2013-01-10 02:23:00,
2013-01-09 18:28:00,50.5,44.2,29.90,East,90,2.0,4.0,79,0.00,,,0.00,meteohub,2013-01-10 02:28:00,
2013-01-09 18:33:00,50.5,43.9,29.90,North,0,2.0,5.0,78,0.00,,,0.00,meteohub,2013-01-10 02:33:00,
2013-01-09 18:38:00,50.4,43.7,29.91,South,180,2.0,5.0,78,0.00,,,0.00,meteohub,2013-01-10 02:38:00,
2013-01-09 18:43:00,50.4,44.1,29.91,South,180,2.0,5.0,79,0.00,,,0.00,meteohub,2013-01-10 02:43:00,
2013-01-09 18:48:00,50.2,43.5,29.91,SW,225,2.0,3.0,78,0.00,,,0.00,meteohub,2013-01-10 02:48:00,
2013-01-09 18:53:00,50.0,43.3,29.92,South,180,1.0,2.0,78,0.00,,,0.00,meteohub,2013-01-10 02:53:00,
2013-01-09 18:58:00,50.0,43.7,29.92,East,90,1.0,3.0,79,0.00,,,0.00,meteohub,2013-01-10 02:58:00,
2013-01-09 19:03:00,49.8,43.2,29.91,NW,315,2.0,3.0,78,0.00,,,0.00,meteohub,2013-01-10 03:03:00,
2013-01-09 19:08:00,49.5,42.8,29.91,SE,135,2.0,2.0,78,0.00,,,0.00,meteohub,2013-01-10 03:08:00,
2013-01-09 19:13:00,49.1,42.6,29.92,West,270,1.0,2.0,78,0.00,,,0.00,meteohub,2013-01-10 03:13:00,
2013-01-09 19:18:00,48.9,42.1,29.92,NW,315,2.0,2.0,77,0.00,,,0.00,meteohub,2013-01-10 03:18:00,
2013-01-09 19:24:00,48.7,41.2,29.92,SE,135,3.0,3.0,75,0.00,,,0.00,meteohub,2013-01-10 03:24:00,
2013-01-09 19:29:00,48.6,39.2,29.92,ESE,113,5.0,5.0,70,0.00,,,0.00,meteohub,2013-01-10 03:29:00,
2013-01-09 19:34:00,48.7,39.4,29.91,East,90,2.0,7.0,70,0.00,,,0.00,meteohub,2013-01-10 03:34:00,
2013-01-09 19:39:00,48.6,38.8,29.91,West,270,3.0,7.0,69,0.00,,,0.00,meteohub,2013-01-10 03:39:00,
2013-01-09 19:44:00,48.4,37.9,29.91,SW,225,4.0,7.0,67,0.00,,,0.00,meteohub,2013-01-10 03:44:00,
2013-01-09 19:50:00,48.4,37.2,29.91,NE,45,7.0,7.0,65,0.00,,,0.00,meteohub,2013-01-10 03:50:00,
2013-01-09 19:55:00,48.2,37.0,29.92,East,90,4.0,10.0,65,0.00,,,0.00,meteohub,2013-01-10 03:55:00,
2013-01-09 20:00:00,48.0,36.9,29.93,NE,45,9.0,10.0,65,0.00,,,0.00,meteohub,2013-01-10 04:00:00,
2013-01-09 20:05:00,48.0,36.9,29.93,NE,45,9.0,9.0,65,0.00,,,0.00,meteohub,2013-01-10 04:05:00,
2013-01-09 20:10:00,47.7,37.2,29.94,SW,225,4.0,9.0,67,0.00,,,0.00,meteohub,2013-01-10 04:10:00,
2013-01-09 20:16:00,47.3,36.9,29.94,SW,225,4.0,9.0,67,0.00,,,0.00,meteohub,2013-01-10 04:16:00,
2013-01-09 20:21:00,46.9,36.5,29.93,SW,225,4.0,9.0,67,0.00,,,0.00,meteohub,2013-01-10 04:21:00,
2013-01-09 20:26:00,46.6,37.0,29.93,NW,315,2.0,7.0,69,0.00,,,0.00,meteohub,2013-01-10 04:26:00,
2013-01-09 20:31:00,46.2,37.0,29.94,South,180,3.0,6.0,70,0.00,,,0.00,meteohub,2013-01-10 04:31:00,
2013-01-09 20:36:00,45.9,37.0,29.94,West,270,2.0,6.0,71,0.00,,,0.00,meteohub,2013-01-10 04:36:00,
2013-01-09 20:41:00,45.3,36.9,29.94,NE,45,2.0,4.0,72,0.00,,,0.00,meteohub,2013-01-10 04:41:00,
2013-01-09 20:46:00,45.1,36.7,29.95,South,180,2.0,4.0,72,0.00,,,0.00,meteohub,2013-01-10 04:46:00,
2013-01-09 20:51:00,44.8,36.7,29.95,West,270,2.0,4.0,73,0.00,,,0.00,meteohub,2013-01-10 04:51:00,
2013-01-09 20:56:00,44.6,36.5,29.94,South,180,1.0,4.0,73,0.00,,,0.00,meteohub,2013-01-10 04:56:00,
2013-01-09 21:00:00,44.2,36.1,29.94,NE,45,3.0,4.0,73,0.00,,,0.00,meteohub,2013-01-10 05:00:00,
2013-01-09 21:01:00,44.2,36.1,29.95,NE,45,3.0,3.0,73,0.00,,,0.00,meteohub,2013-01-10 05:01:00,
2013-01-09 21:03:00,44.2,36.1,29.95,NE,45,3.0,3.0,73,0.00,,,0.00,meteohub,2013-01-10 05:03:00,
2013-01-09 21:08:00,45.0,36.5,29.96,North,0,2.0,3.0,72,0.00,,,0.00,meteohub,2013-01-10 05:08:00,
2013-01-09 21:13:00,45.1,36.7,29.95,SW,225,4.0,4.0,72,0.00,,,0.00,meteohub,2013-01-10 05:13:00,
2013-01-09 21:18:00,45.3,36.5,29.96,South,180,1.0,4.0,71,0.00,,,0.00,meteohub,2013-01-10 05:18:00,
2013-01-09 21:23:00,45.1,36.3,29.95,North,0,4.0,4.0,71,0.00,,,0.00,meteohub,2013-01-10 05:23:00,
2013-01-09 21:29:00,45.1,36.0,29.96,South,180,4.0,4.0,70,0.00,,,0.00,meteohub,2013-01-10 05:29:00,
2013-01-09 21:34:00,45.1,36.0,29.96,NW,315,2.0,7.0,70,0.00,,,0.00,meteohub,2013-01-10 05:34:00,
2013-01-09 21:39:00,45.1,36.0,29.96,SE,135,4.0,7.0,70,0.00,,,0.00,meteohub,2013-01-10 05:39:00,
2013-01-09 21:44:00,45.3,35.8,29.96,North,0,3.0,7.0,69,0.00,,,0.00,meteohub,2013-01-10 05:44:00,
2013-01-09 21:49:00,45.3,35.4,29.96,NE,45,6.0,6.0,68,0.00,,,0.00,meteohub,2013-01-10 05:49:00,
2013-01-09 21:54:00,45.5,34.9,29.96,North,0,4.0,5.0,66,0.00,,,0.00,meteohub,2013-01-10 05:54:00,
2013-01-09 21:59:00,45.5,35.2,29.96,NE,45,3.0,7.0,67,0.00,,,0.00,meteohub,2013-01-10 05:59:00,
2013-01-09 22:04:00,45.5,35.2,29.96,NE,45,3.0,7.0,67,0.00,,,0.00,meteohub,2013-01-10 06:04:00,
2013-01-09 22:09:00,45.0,35.1,29.97,SE,135,1.0,7.0,68,0.00,,,0.00,meteohub,2013-01-10 06:09:00,
2013-01-09 22:14:00,44.6,34.7,29.97,East,90,2.0,4.0,68,0.00,,,0.00,meteohub,2013-01-10 06:14:00,
2013-01-09 22:20:00,44.4,34.5,29.97,SE,135,2.0,3.0,68,0.00,,,0.00,meteohub,2013-01-10 06:20:00,
2013-01-09 22:25:00,44.1,34.5,29.97,NE,45,0.0,3.0,69,0.00,,,0.00,meteohub,2013-01-10 06:25:00,
2013-01-09 22:30:00,43.7,34.2,29.98,North,0,1.0,3.0,69,0.00,,,0.00,meteohub,2013-01-10 06:30:00,
2013-01-09 22:35:00,43.3,34.2,29.98,North,0,2.0,2.0,70,0.00,,,0.00,meteohub,2013-01-10 06:35:00,
2013-01-09 22:40:00,43.3,33.4,29.98,West,270,5.0,5.0,68,0.00,,,0.00,meteohub,2013-01-10 06:40:00,
2013-01-09 22:45:00,43.7,33.8,29.98,NE,45,3.0,5.0,68,0.00,,,0.00,meteohub,2013-01-10 06:45:00,
2013-01-09 22:50:00,44.1,34.2,29.99,North,0,1.0,5.0,68,0.00,,,0.00,meteohub,2013-01-10 06:50:00,
2013-01-09 22:55:00,44.1,34.2,29.99,SW,225,1.0,5.0,68,0.00,,,0.00,meteohub,2013-01-10 06:55:00,
2013-01-09 23:00:00,43.9,34.0,29.99,SW,225,2.0,3.0,68,0.00,,,0.00,meteohub,2013-01-10 07:00:00,
2013-01-09 23:05:00,43.9,34.0,29.99,SW,225,2.0,2.0,68,0.00,,,0.00,meteohub,2013-01-10 07:05:00,
2013-01-09 23:10:00,43.3,33.4,29.99,West,270,0.0,2.0,68,0.00,,,0.00,meteohub,2013-01-10 07:10:00,
2013-01-09 23:15:00,42.8,33.3,29.99,NE,45,2.0,2.0,69,0.00,,,0.00,meteohub,2013-01-10 07:15:00,
2013-01-09 23:20:00,42.4,33.1,29.99,NE,45,7.0,7.0,69,0.00,,,0.00,meteohub,2013-01-10 07:20:00,
2013-01-09 23:25:00,42.8,33.3,29.99,SW,225,3.0,7.0,69,0.00,,,0.00,meteohub,2013-01-10 07:25:00,
2013-01-09 23:30:00,43.2,33.6,29.99,West,270,4.0,7.0,69,0.00,,,0.00,meteohub,2013-01-10 07:30:00,
2013-01-09 23:36:00,43.3,33.8,29.99,ESE,113,4.0,7.0,69,0.00,,,0.00,meteohub,2013-01-10 07:36:00,
2013-01-09 23:41:00,43.7,33.8,29.99,SW,225,4.0,6.0,68,0.00,,,0.00,meteohub,2013-01-10 07:41:00,
2013-01-09 23:46:00,43.7,33.8,29.99,West,270,4.0,6.0,68,0.00,,,0.00,meteohub,2013-01-10 07:46:00,
2013-01-09 23:51:00,43.5,34.0,29.99,SW,225,3.0,4.0,69,0.00,,,0.00,meteohub,2013-01-10 07:51:00,
2013-01-09 23:56:00,43.3,33.8,29.99,SW,225,2.0,4.0,69,0.00,,,0.00,meteohub,2013-01-10 07:56:00,